Simultaneous Nadir Overpasses (SNOs) Predictions

Prediction of SNOs between AQUA and METOP-B Satellite Orbit:

Table of predicted SNOs for the next 14.0 days since TLE Epoch: 11/2/2019
Index Date (AQUA) Time (AQUA) Lat,Lon (AQUA) SZA (AQUA ) Date (METOP-B) Time (METOP-B) Lat,Lon (METOP-B) SZA (METOP-B ) Distance(km) Time Diff (sec)
1 11/04/2019 19:06:59 -73.78, 67.55 90.85 11/04/2019 19:06:11 -73.76, 67.48 90.87 3.03 48
2 11/04/2019 19:56:27 73.84,-124.95 89.23 11/04/2019 19:56:49 73.84,-124.99 89.23 1.25 22
3 11/07/2019 14:41:13 -73.78, 133.99 90.00 11/07/2019 14:40:34 -73.81, 134.00 89.98 2.95 39
4 11/07/2019 15:30:41 73.84, -58.51 90.08 11/07/2019 15:31:13 73.84, -58.58 90.07 2.29 32
5 11/10/2019 10:15:26 -73.79,-159.59 89.18 11/10/2019 10:14:57 -73.80,-159.60 89.17 1.19 29
6 11/10/2019 11:04:54 73.86, 7.90 90.90 11/10/2019 11:05:35 73.88, 7.93 90.93 3.23 41
7 11/13/2019 05:49:40 -73.81, -93.19 88.39 11/13/2019 05:49:21 -73.79, -93.20 88.40 1.90 19
8 11/13/2019 06:39:08 73.88, 74.30 91.69 11/13/2019 06:39:59 73.88, 74.33 91.69 0.79 51
9 11/16/2019 00:34:21 73.49, 166.30 92.01 11/16/2019 00:33:10 73.44, 165.05 91.98 40.06 71
10 11/16/2019 01:23:54 -73.84, -26.81 87.63 11/16/2019 01:23:44 -73.83, -26.70 87.63 3.64 10
11 11/16/2019 02:13:21 73.85, 140.80 92.40 11/16/2019 02:14:23 73.87, 140.72 92.42 3.01 62




NCC Satellite Simultaneous Nadir Overpasses (SNOs) Prediction Service
